Flight Track Log - Related Links

Times and Time Zones

All times are in EDT time to prevent confusion due to time zone crossing. See the DAL3698 flight status page for this flight to view local times or setup timezone preferences in your user account.

Time Position Orientation Groundspeed Altitude Reporting Facility
EDT Latitude Longitude Course Direction KTS MPH feet Rate Location/Type
Mon 07:32:01 42.8031 -84.5311 278° West 189 217 2,600  Level Cleveland Center
Mon 07:33:35 42.8289 -84.6392 288° West 249 287 4,500 1,800 Climbing Minneapolis Center
Mon 07:34:00 42.7817 -85.1054 281° West  Level FlightAware Approximate
Mon 07:34:01 42.8272 -84.6800 267° West 232 267 6,200  Level Cleveland Center
Mon 07:34:45 42.8228 -84.7636 266° West 273 314 8,600 2,321 Climbing Chicago Center
Mon 07:35:00 42.7834 -85.2363 270° West  Level FlightAware Approximate
Mon 07:35:47 42.8172 -84.8711 266° West 282 325 10,300  Level Chicago Center
Mon 07:36:00 42.7833 -85.3673 270° West  Level FlightAware Approximate
Mon 07:36:48 42.8106 -85.0006 266° West 329 379 11,500  Level Chicago Center
Mon 07:37:00 42.7855 -85.5038 278° West  Level FlightAware Approximate
Mon 07:37:50 42.8036 -85.1400 266° West 359 413 13,200  Level Chicago Center
Mon 07:38:51 42.7969 -85.2842 266° West 375 432 15,100 1,805 Climbing Chicago Center
Mon 07:39:53 42.7897 -85.4264 266° West 378 435 16,900 1,366 Climbing Chicago Center
Mon 07:40:54 42.7967 -85.5703 274° West 385 443 17,900 1,073 Climbing Chicago Center
Mon 07:41:56 42.8153 -85.7158 280° West 389 448 19,100 1,171 Climbing Chicago Center
Mon 07:42:57 42.8339 -85.8647 280° West 395 455 20,300 1,122 Climbing Chicago Center
Mon 07:43:59 42.8525 -86.0144 280° West 394 453 21,400 1,065 Climbing Chicago Center
Mon 07:45:01 42.8717 -86.1669 280° West 401 461 22,500 1,122 Climbing Chicago Center
Mon 07:46:02 42.8947 -86.3481 280° West 400 460 23,700 927 Climbing Chicago Center
Mon 07:47:04 42.9136 -86.5014 280° West 408 470 24,400 732 Climbing Chicago Center
Mon 07:48:05 42.9319 -86.6558 279° West 411 473 25,200 683 Climbing Chicago Center
Mon 07:49:07 42.9503 -86.8106 279° West 413 475 25,800 387 Climbing Chicago Center
Mon 07:50:09 42.9681 -86.9653 279° West 412 474 26,000 98 Climbing Chicago Center
Mon 07:51:10 42.9878 -87.1233 280° West 424 488 26,000  Level Chicago Center
Mon 07:52:12 43.0056 -87.2819 279° West 423 487 26,000  Level Chicago Center
Mon 07:53:14 43.0258 -87.4614 279° West 426 490 26,000  Level Chicago Center
Mon 07:54:15 43.0797 -87.6064 297° West 439 505 26,000  Level Chicago Center
Mon 07:55:17 43.1464 -87.7419 304° West 430 495 26,000  Level Chicago Center
Mon 07:56:19 43.2144 -87.8775 305° West 431 496 26,000  Level Chicago Center
Mon 07:57:20 43.2919 -88.0356 304° West 430 495 26,000  Level Chicago Center
Mon 07:58:22 43.3589 -88.1706 304° West 427 491 26,000  Level Chicago Center
Mon 07:59:24 43.4256 -88.3064 304° West 429 494 26,000  Level Chicago Center
Mon 08:00:26 43.4861 -88.4331 303° West 434 499 26,000  Level Chicago Center
Mon 08:01:27 43.5669 -88.5969 304° West 433 498 26,000  Level Chicago Center
Mon 08:02:29 43.6331 -88.7347 304° West 433 498 26,000  Level Chicago Center
Mon 08:03:01 43.6653 -88.8008 304° West 430 495 26,000  Level Minneapolis Center
Mon 08:04:02 43.7275 -88.9303 304° West 413 475 26,000  Level Minneapolis Center
Mon 08:05:03 43.7897 -89.0600 304° West 406 467 26,000  Level Minneapolis Center
Mon 08:06:04 43.8514 -89.1914 303° West 407 468 26,000  Level Minneapolis Center
Mon 08:07:05 43.9139 -89.3242 303° West 410 472 26,000  Level Minneapolis Center
Mon 08:08:06 43.9767 -89.4575 303° West 412 474 26,000  Level Minneapolis Center
Mon 08:09:07 44.0383 -89.5878 303° West 408 470 26,000  Level Minneapolis Center
Mon 08:10:08 44.1111 -89.7439 303° West 410 472 26,000  Level Minneapolis Center
Mon 08:11:09 44.1719 -89.8717 304° West 401 461 26,000  Level Minneapolis Center
Mon 08:12:10 44.2311 -90.0011 303° West 397 457 26,000  Level Minneapolis Center
Mon 08:13:11 44.2889 -90.1236 303° West 383 441 26,000  Level Minneapolis Center
Mon 08:14:25 44.3522 -90.2631 302° West 368 423 26,000 -356 Level Minneapolis Center
Mon 08:15:26 44.4069 -90.3836 302° West 367 422 25,200 -885 Descending Minneapolis Center
Mon 08:16:27 44.4636 -90.5050 303° West 371 427 24,200 -590 Descending Minneapolis Center
Mon 08:17:28 44.5108 -90.6269 299° West 361 415 24,000 -98 Descending Minneapolis Center
Mon 08:18:29 44.5606 -90.7800 295° West 369 425 24,000  Level Minneapolis Center
Mon 08:19:30 44.5989 -90.9000 294° West 385 443 24,000  Level Minneapolis Center
Mon 08:20:32 44.6453 -91.0369 295° West 390 449 24,000  Level Minneapolis Center
Mon 08:21:33 44.6828 -91.1472 296° West 391 450 24,000 -738 Level Minneapolis Center
Mon 08:22:34 44.7425 -91.3339 294° West 380 437 22,500 -1,574 Descending Minneapolis Center
Mon 08:23:35 44.7869 -91.4683 295° West 380 437 20,800 -1,610 Descending Minneapolis Center
Mon 08:24:37 44.8294 -91.5969 295° West 371 427 19,200 -1,533 Descending Minneapolis Center
Mon 08:26:39 44.9111 -91.8547 294° West 365 420 16,100 -1,636 Descending Minneapolis Center
Mon 08:27:11 44.9456 -91.9322 302° West 361 415 15,000 -1,925 Descending FAA TRACON SMA TRACON (SMA)
Mon 08:27:32 44.9611 -91.9806 294° West 356 410 14,400 -1,610 Descending FAA TRACON SMA TRACON (SMA)
Mon 08:27:52 44.9722 -92.0192 292° West 351 404 13,900 -1,350 Descending FAA TRACON SMA TRACON (SMA)
Mon 08:28:12 44.9839 -92.0578 293° West 350 403 13,500 -1,500 Descending FAA TRACON SMA TRACON (SMA)
Mon 08:28:32 44.9989 -92.1050 294° West 345 397 12,900 -1,650 Descending FAA TRACON SMA TRACON (SMA)
Mon 08:28:52 45.0108 -92.1422 294° West 343 395 12,400 -1,350 Descending FAA TRACON SMA TRACON (SMA)
Mon 08:29:12 45.0208 -92.1792 291° West 339 390 12,000 -1,500 Descending FAA TRACON SMA TRACON (SMA)
Mon 08:29:32 45.0347 -92.2244 293° West 330 380 11,400 -1,500 Descending FAA TRACON SMA TRACON (SMA)
Mon 08:29:52 45.0458 -92.2617 293° West 331 381 11,000 -600 Descending FAA TRACON SMA TRACON (SMA)
Mon 08:30:12 45.0492 -92.2994 277° West 326 375 11,000  Level FAA TRACON SMA TRACON (SMA)
Mon 08:30:32 45.0442 -92.3472 262° West 321 369 11,000  Level FAA TRACON SMA TRACON (SMA)
Mon 08:30:52 45.0367 -92.3850 254° West 322 371 11,000  Level FAA TRACON SMA TRACON (SMA)
Mon 08:31:11 45.0328 -92.4236 262° West 323 372 11,000 -308 Level FAA TRACON SMA TRACON (SMA)
Mon 08:31:31 45.0183 -92.4656 244° Southwest 312 359 10,800 -750 Descending FAA TRACON SMA TRACON (SMA)
Mon 08:31:51 44.9981 -92.4853 215° Southwest 306 352 10,500 -1,200 Descending FAA TRACON SMA TRACON (SMA)
Mon 08:32:11 44.9767 -92.5017 208° Southwest 290 334 10,000 -1,500 Descending FAA TRACON SMA TRACON (SMA)
Mon 08:32:31 44.9581 -92.5200 215° Southwest 275 316 9,500 -1,500 Descending FAA TRACON SMA TRACON (SMA)
Mon 08:32:51 44.9375 -92.5450 221° Southwest 260 299 9,000 -732 Descending FAA TRACON SMA TRACON (SMA)
Mon 08:33:12 44.9194 -92.5650 218° Southwest 260 299 9,000  Level FAA TRACON SMA TRACON (SMA)
Mon 08:33:32 44.8981 -92.5903 220° Southwest 262 302 9,000  Level FAA TRACON SMA TRACON (SMA)
Mon 08:33:52 44.8814 -92.6108 221° Southwest 258 297 9,000  Level FAA TRACON SMA TRACON (SMA)
Mon 08:34:12 44.8636 -92.6308 219° Southwest 262 302 9,000  Level FAA TRACON SMA TRACON (SMA)
Mon 08:34:32 44.8425 -92.6567 221° Southwest 264 304 9,000 -600 Level FAA TRACON SMA TRACON (SMA)
Mon 08:34:52 44.8250 -92.6767 219° Southwest 261 300 8,600 -1,500 Descending FAA TRACON SMA TRACON (SMA)
Mon 08:35:12 44.8106 -92.7011 230° Southwest 264 304 8,000 -1,800 Descending FAA TRACON SMA TRACON (SMA)
Mon 08:35:32 44.8019 -92.7378 252° West 263 303 7,400 -1,500 Descending FAA TRACON SMA TRACON (SMA)
Mon 08:35:52 44.7933 -92.7664 247° West 259 298 7,000 -1,050 Descending FAA TRACON SMA TRACON (SMA)
Mon 08:36:12 44.7794 -92.7867 226° Southwest 251 289 6,700 -900 Descending FAA TRACON SMA TRACON (SMA)
Mon 08:36:32 44.7614 -92.8081 220° Southwest 224 258 6,400 -769 Descending FAA TRACON SMA TRACON (SMA)
Mon 08:36:51 44.7489 -92.8233 221° Southwest 204 235 6,200 -615 Descending FAA TRACON SMA TRACON (SMA)
Mon 08:37:11 44.7419 -92.8436 244° Southwest 202 232 6,000 -300 Descending FAA TRACON SMA TRACON (SMA)
Mon 08:37:31 44.7425 -92.8669 272° West 196 226 6,000  Level FAA TRACON SMA TRACON (SMA)
Mon 08:37:51 44.7444 -92.8958 275° West 193 222 6,000 -300 Level FAA TRACON SMA TRACON (SMA)
Mon 08:38:11 44.7508 -92.9169 293° West 197 227 5,800 -878 Descending FAA TRACON SMA TRACON (SMA)
Mon 08:38:32 44.7594 -92.9375 301° West 200 230 5,400 -1,317 Descending FAA TRACON SMA TRACON (SMA)
Mon 08:38:52 44.7700 -92.9628 300° West 196 226 4,900 -1,200 Descending FAA TRACON SMA TRACON (SMA)
Mon 08:39:12 44.7789 -92.9831 302° West 194 223 4,600 -1,050 Descending FAA TRACON SMA TRACON (SMA)
Mon 08:39:32 44.7875 -93.0036 301° West 198 228 4,200 -1,200 Descending FAA TRACON SMA TRACON (SMA)
Mon 08:39:52 44.7986 -93.0286 302° West 197 227 3,800 -1,050 Descending FAA TRACON SMA TRACON (SMA)
Mon 08:40:12 44.8067 -93.0469 302° West 183 211 3,500 -900 Descending FAA TRACON SMA TRACON (SMA)
Mon 08:40:32 44.8142 -93.0639 302° West 170 196 3,200 -1,050 Descending FAA TRACON SMA TRACON (SMA)
Mon 08:40:52 44.8233 -93.0856 301° West 167 192 2,800 -1,050 Descending FAA TRACON SMA TRACON (SMA)
Mon 08:41:12 44.8308 -93.1025 302° West 164 189 2,500 -750 Descending FAA TRACON SMA TRACON (SMA)
Mon 08:41:32 44.8375 -93.1183 301° West 157 181 2,300 -750 Descending FAA TRACON SMA TRACON (SMA)
Mon 08:41:52 44.8453 -93.1364 301° West 143 165 2,000 -900 Descending FAA TRACON SMA TRACON (SMA)

Login

Don't have an account? Register now (free) for customized features, flight alerts, and more!